This demonstration page uses our WeatherBlox Daily Observations layout. Learn more.

Left ArrowRight Arrow

53.62937, 11.41316

Hourly Observations for May 6, 2019

Temp ( °F °C ) Dew Point ( °F °C ) Humidity (%) Winds ( mph kmh ) Pressure ( in mb ) Visibility ( mi km ) Precip ( " mm )
6:50 am 06:50 Mostly Sunny 37 3 36 2 93 93 SW 7 11 29.98 1015 7 11 N/A
7:20 am 07:20 Partly Cloudy with Light Rain 41 5 37 3 87 87 SW 8 13 29.98 1015 30 48 N/A
7:50 am 07:50 Mostly Sunny 43 6 37 3 81 81 WSW 12 19 29.97 1015 30 48 N/A
8:20 am 08:20 Partly Cloudy with Light Rain 43 6 37 3 81 81 W 13 20 29.97 1015 30 48 N/A
8:50 am 08:50 Partly Cloudy 45 7 37 3 76 76 WSW 13 20 29.97 1015 30 48 N/A
9:20 am 09:20 Mostly Sunny 46 8 37 3 71 71 WSW 14 22 29.97 1015 30 48 N/A
9:50 am 09:50 Partly Cloudy with Drizzle 46 8 37 3 71 71 W 15 24 29.97 1015 30 48 N/A
10:20 am 10:20 Partly Cloudy 46 8 37 3 71 71 W 15 24 29.97 1015 30 48 N/A
10:50 am 10:50 Partly Cloudy with Light Rain 46 8 39 4 76 76 W 10 17 29.97 1015 30 48 N/A
11:20 am 11:20 Mostly Sunny 48 9 43 6 82 82 WSW 15 24 29.97 1015 30 48 N/A
11:50 am 11:50 Mostly Cloudy with Light Rain 46 8 39 4 76 76 WSW 16 26 29.97 1015 30 48 N/A
12:20 pm 12:20 Partly Cloudy 50 10 43 6 76 76 WSW 12 19 29.97 1015 30 48 N/A
12:50 pm 12:50 Partly Cloudy 50 10 41 5 71 71 WSW 20 31 29.97 1015 30 48 N/A
1:20 pm 13:20 Partly Cloudy with Showers Nearby 50 10 43 6 76 76 W 9 15 29.97 1015 30 48 N/A
1:50 pm 13:50 Partly Cloudy with Showers Nearby 50 10 37 3 62 62 W 14 22 29.97 1015 30 48 N/A
2:20 pm 14:20 Partly Cloudy with Showers Nearby 52 11 37 3 58 58 W 14 22 29.97 1015 30 48 N/A
2:50 pm 14:50 Partly Cloudy 52 11 36 2 54 54 W 18 30 29.97 1015 30 48 N/A
3:20 pm 15:20 Mostly Cloudy 52 11 32 undefined 47 47 VRB 9 15 29.97 1015 30 48 N/A
3:50 pm 15:50 Partly Cloudy 50 10 34 1 54 54 W 12 19 29.97 1015 30 48 N/A
4:20 pm 16:20 Partly Cloudy 50 10 34 1 54 54 W 13 20 29.97 1015 30 48 N/A
4:50 pm 16:50 Mostly Cloudy 50 10 32 undefined 50 50 W 13 20 29.97 1015 30 48 N/A
5:20 pm 17:20 Partly Cloudy 50 10 30 -1 47 47 W 14 22 29.97 1015 30 48 N/A
5:50 pm 17:50 Partly Cloudy 50 10 30 -1 47 47 W 12 19 29.97 1015 30 48 N/A
6:20 pm 18:20 Partly Cloudy 48 9 30 -1 50 50 W 12 19 29.97 1015 30 48 N/A
6:50 pm 18:50 Mostly Cloudy 48 9 32 undefined 54 54 W 8 13 30.00 1016 30 48 N/A
7:20 pm 19:20 Partly Cloudy 48 9 30 -1 50 50 W 8 13 30.00 1016 30 48 N/A
7:50 pm 19:50 Mostly Sunny 46 8 30 -1 53 53 W 9 15 30.00 1016 30 48 N/A
8:20 pm 20:20 Mostly Sunny 46 8 28 -2 50 50 W 7 11 30.00 1016 30 48 N/A
8:50 pm 20:50 Mostly Sunny 46 8 30 -1 53 53 W 9 15 30.00 1016 30 48 N/A

Powered by AerisWeather